Retour au catalogue

ONEWEB-0606

ActifCommunicationsPO
NORAD 54670·PAYLOAD·🇬🇧 United Kingdom

Lancé Dec 8, 2022 depuis Cape Canaveral Space Force Station

Loading…

Prochains Passages (prochaines 24 heures)

TLE

FraisSource: CelesTrak SupGP

Époque: Sep 14, 2026, 19:01 UTC

1 54670C 22166AE  26257.79289769  .00002221  00000+0  53843-2 0  2576
2 54670  87.9271 226.1607 0002068  78.8845 321.8508 13.21820882    11

Suivez ONEWEB-0606 en temps réel avec AllMySat

Download on the App Store